Regional Weather Roundup
Issued by NWS

Home | Current Version | Previous Version | Text Only | Print | Product List | Glossary On
Versions: 1 2 3 4 5 6 7 8 9 10 11 12 13 14 15 16 17 18 19 20 21 22 23 24 25 26 27 28 29 30 31 32 33 34 35 36 37 38 39 40 41 42 43 44 45 46 47 48 49 50
000
ASUS44 KLIX 270905
RWRLA
LOUISIANA WEATHER ROUNDUP
NATIONAL WEATHER SERVICE NEW ORLEANS LA
300 AM CST SAT DEC 27 2014

NOTE: "FAIR" INDICATES FEW OR NO CLOUDS BELOW 12,000 FEET WITH NO
      SIGNIFICANT WEATHER AND/OR OBSTRUCTIONS TO VISIBILITY.
      SKY/WX - SKY CONDITION AND SIGNIFICANT WEATHER.
      TMP - AIR TEMPERATURE.    DP   - DEWPOINT TEMPERATURE.
      RH  - RELATIVE HUMIDITY.  PRES - PRESSURE.
      HX  - HEAT INDEX.         WCI  - WIND CHILL INDEX.

*  THESE STATIONS ARE NOT NWS OR FAA STATIONS AND ARE NOT UNDER
   NWS QUALITY CONTROL.

LAZ040-048-061>063-065-066-069-271000-
SOUTHEAST LOUISIANA

CITY           SKY/WX    TMP DP  RH WIND       PRES   REMARKS
N.O. AUDUBON   NOT AVBL
N.O. INTL ARPT CLOUDY    66  61  84 W14       30.14R
N.O. LAKEFRONT CLOUDY    64  60  87 SE13      30.11S
N.O. DOWNTOWN* CLOUDY    66  59  77 SE9       30.11S
SLIDELL        CLOUDY    65  60  84 SE9G16    30.11S
BATON ROUGE    CLOUDY    60  58  92 E9        30.11F
BOOTHVILLE     CLOUDY    65  63  93 E6        30.12S
BELLE CHASSE   LGT RAIN  64  61  90 SE10      30.10S
BOGALUSA*        N/A     63  55  75 CALM      30.15R
GALLIANO*      CLOUDY    68  65  90 MISG      30.10S
NEW ROADS*     CLOUDY    60  59  97 E10G16    30.10F
GONZALES*      LGT RAIN  60  60 100 CALM      30.11F
HAMMOND*       NOT AVBL
HOUMA*         LGT RAIN  67  65  95 SE5       30.10S
PORT FOURCHON* CLOUDY    68  66  94 SE12      30.13R FOG

$$

LAZ041-044-053-054-271000-
SOUTHWEST LOUISIANA

CITY           SKY/WX    TMP DP  RH WIND       PRES   REMARKS
LAKE CHARLES   CLOUDY    63  61  93 SE10      30.03F
LAFAYETTE      MOCLDY    61  59  93 VRB3      30.07F
PATTERSON      CLOUDY    61  57  88 NE7       30.10F
SALT POINT       N/A     72  61  68 CALM      30.07F
NEW IBERIA     LGT RAIN  62  60  93 E8        30.09S
CHENAULT AIRPK CLOUDY    63  61  95 E6        30.05S

$$

LAZ027-028-271000-
CENTRAL LOUISIANA

CITY           SKY/WX    TMP DP  RH WIND       PRES   REMARKS
FORT POLK      CLOUDY    60  59  96 SE8       30.04F
ALEXANDRIA INT CLOUDY    59  57  93 SE8       30.06S
ALEXANDRIA     CLOUDY    61  57  87 SE6       30.08R

$$

LAZ001-002-271000-
NORTHWEST LOUISIANA

CITY           SKY/WX    TMP DP  RH WIND       PRES   REMARKS
SHREVEPORT     LGT RAIN  60  58  92 SE9       30.03S
BARKSDALE AFB  CLOUDY    58  57  96 SE10      30.04S
DTN SHREVEPORT CLOUDY    58  55  90 SE12      30.03F

$$

LAZ014-016-271000-
NORTHEAST LOUISIANA

CITY           SKY/WX    TMP DP  RH WIND       PRES   REMARKS
MONROE         CLOUDY    58  55  90 SE7       30.10S
TALLULAH       LGT RAIN  57  53  86 SE6       30.12F

$$




USA.gov is the U.S. government's official web portal to all federal, state and local government web resources and services.